Location: Bouillancy
(49.1149°N, 2.9308°E)
Time: 22:04:45
(UTC+00:00)

Cosmos 1455 Rocket - Pass Details

Date: 30 September 2020
Orbit: 604 x 630 km, 82.5° (Epoch: 25 October)

Event Time Altitude Azimuth Distance (km) Brightness Sun altitude
Rises 19:41:42 0° 193° (SSW) 2,878 6.4 -22.2°
Reaches altitude 10° 19:43:55 10° 196° (SSW) 1,973 5.6 -22.6°
Maximum altitude 19:48:17 73° 281° (W) 647 3.2 -23.2°
Drops below altitude 10° 19:52:39 10° 6° (N) 1,974 5.8 -23.9°
Sets 19:54:53 0° 9° (N) 2,880 6.7 -24.2°
